Regional Weather Roundup
Issued by NWS Wakefield, VA

Home | Current Version | Previous Version | Graphics & Text | Print | Product List | Glossary On
Versions: 1 2 3 4 5 6 7 8 9 10 11 12 13 14 15 16 17 18 19 20 21 22 23 24 25 26 27 28 29 30 31 32 33 34 35 36 37 38 39 40 41 42 43 44 45 46 47 48 49 50
000
ASUS41 KAKQ 222010
RWRAKQ

REGIONAL WEATHER ROUNDUP
NATIONAL WEATHER SERVICE WAKEFIELD VA
300 PM EST SAT NOV 22 2014

Note: "fair" indicates few or no clouds below 12,000 feet with no
significant weather and/or obstructions to visibility. * = Denotes
station may not report precipitation (e.g., rain,snow,etc.),
thunder or fog.

VAZ042-051-052>054-056-222100-
NORTHERN VIRGINIA

CITY           SKY/WX    TMP DP  RH WIND       PRES   REMARKS
WASH NATIONAL  PTSUNNY   52  16  24 S15       30.35F
DULLES         MOSUNNY   48  15  26 S13       30.32F
FORT BELVOIR   SUNNY     49  14  24 S12       30.35F
QUANTICO       SUNNY     49  22  34 SW15      30.37F
FREDERICKSBRG* SUNNY     52  16  24 SW9G17    30.36F
STAFFORD*      SUNNY     50  10  19 SW7       30.40S
WARRENTON      SUNNY     53  25  33 SW9       30.33F
CULPEPER*      SUNNY     54  14  20 S8        30.34F
MANASSAS*      SUNNY     52  16  24 SW10G16   30.34
LEESBURG*      MOSUNNY   50  21  32 MISG      30.32F
WINCHESTER     PTSUNNY   50   3  14 S6        30.27F
FRONT ROYAL*   PTCLDY    55  19  24 SW3       30.26F
LURAY*         CLEAR     59  25  27 SW10      30.27F
$$

VAZ048-049-060>072-079>083-222100-
CENTRAL AND SOUTH CENTRAL VIRGINIA

CITY           SKY/WX    TMP DP  RH WIND       PRES   REMARKS
RICHMOND       PTSUNNY   52  14  22 S12       30.39F
CHESTERFIELD*  CLEAR     50  16  25 SW7       30.41F
PETERSBURG*    SUNNY     52  11  19 S6        30.41S
HANOVER        SUNNY     50  14  23 SW9       30.40F
TAPPAHANNOCK*  SUNNY     49   7  18 S8        30.39F
QUINTON*       FAIR      49  16  26 SW8       30.40F
CHARLOTTSVILLE SUNNY     51  14  22 SW9       30.34F
GORDONSVILLE*  CLEAR     50  16  25 SW10      30.34F
ORANGE*        SUNNY     52  16  24 S12       30.36S
LOUISA*        SUNNY     50  16  25 S9        30.34F
BUMPASS*       FAIR      49  13  23 S9        30.36F
FARMVILLE*     SUNNY     52  14  22 SW9       30.37S
CREWE*         PTCLDY    49  11  21 S6        30.39F
FORT PICKETT*  PTCLDY    50  14  23 S10       30.40S
LUNENBURG*     PTCLDY    50  17  27 S9        30.39F
CHASE CITY*    FAIR      51  18  27 S3        30.40S
CLARKSVILLE*   FAIR      48  18  29 S6        30.40F
SOUTH HILL*    MOSUNNY   49  14  24 S7        30.46F
LAWRENCEVILLE* PTCLDY    50  15  24 SW9       30.41S
$$

VAZ088>098-222100-
SOUTHEAST VIRGINIA

CITY           SKY/WX    TMP DP  RH WIND       PRES   REMARKS
NORFOLK        SUNNY     50  18  28 SW10      30.41F
VIRGINIA BEACH PTSUNNY   52  21  29 SW12      30.41F
NORFOLK NAVAL  PTSUNNY   53  17  24 S8        30.43F
WEST POINT*    SUNNY     52  10  18 SW8       30.42F
SALUDA*        FAIR      48  14  25 SW6       30.39F
NEWPORT NEWS   SUNNY     52  19  27 SW14      30.41F
LANGLEY AFB    SUNNY     50  18  28 SW14      30.42F
FORT EUSTIS    SUNNY     50  21  32 S8        30.40F
WILLIAMSBURG*  SUNNY     54  21  28 SW7       30.42S
HR EXEC AP*    CLEAR     50  16  25 S7        30.43F
FRANKLIN*      MOSUNNY   50  14  23 SW5       30.42F
WAKEFIELD      MOSUNNY   50  15  24 S6        30.42F
$$

VAZ020-022-025-037-045-222100-
WEST CENTRAL AND SOUTHWEST VIRGINIA

CITY           SKY/WX    TMP DP  RH WIND       PRES   REMARKS
STAUNTON*      SUNNY     55  16  21 S13       30.30F
WAYNESBORO*    CLEAR     51  17  25 SE5       30.30S
HOT SPRINGS VA SUNNY     48  17  28 W12G17    30.25F
LYNCHBURG      SUNNY     48  15  26 S10       30.37F
DANVILLE       MOSUNNY   51  14  22 S7        30.41F
SOUTH BOSTON*  PTCLDY    51  12  20 SW8       30.40F
MARTINSVILLE   MOSUNNY   51  17  26 SW6       30.40F
ROANOKE        MOSUNNY   50  16  25 E7        30.36F
BLACKSBURG     SUNNY     54  23  30 S5        30.32F
DUBLIN*        SUNNY     55  17  23 S6        30.32F
MARION*        MOSUNNY   55  15  20 E3        30.31F
HILLSVILLE*    MOSUNNY   48  16  28 S8        30.31F
RICHLANDS*     PTCLDY    59  17  20 SW6       30.27F
WISE*          SUNNY     54  18  24 SW7       30.28F
ABINGDON*      MOSUNNY   58  15  18 W6        30.28F
$$

MDZ021>025-VAZ099-100-222100-
SOUTHERN MARYLAND AND THE DELMARVA PENINSULA

CITY           SKY/WX    TMP DP  RH WIND       PRES   REMARKS
PATUXENT RIVER MOSUNNY   48  14  25 SW10      30.38F
BAY BRIDGE APT   N/A     46  19  34 S10       30.35F
LEONARDTOWN    SUNNY     46  14  27 SW9G17    30.39S
DOVER          SUNNY     47  20  34 S15       30.33F
GEORGETOWN     SUNNY     47  17  30 SW10G20   30.38F
EASTON         NOT AVBL
CAMBRIDGE      SUNNY     46  19  34 S8        30.38F
SALISBURY      SUNNY     49  16  26 S13       30.39F
OCEAN CITY     SUNNY     45  23  42 SW13G22   30.39F
WALLOPS ISLAND SUNNY     46  23  40 SW16      30.41F
ACCOMACK*      SUNNY     48  19  32 SW10      30.40F
$$

NCZ012>017-030>032-222100-
NORTH CENTRAL AND EASTERN NORTH CAROLINA

CITY           SKY/WX    TMP DP  RH WIND       PRES   REMARKS
ROANOKE RAPIDS PTCLDY    52  18  25 S6        30.42F
RALEIGH        MOSUNNY   52  10  18 SW5       30.42F
ELIZABETH CITY SUNNY     54  26  34 SW9       30.43F
AHOSKIE*       MOSUNNY   53  13  20 S3        30.43F
EDENTON*       SUNNY     54  24  30 S5        30.43F
CURRITUCK*     SUNNY     52  20  27 S5        30.43F
KILL DEVIL HLS SUNNY     52  32  45 CALM      30.42F
MANTEO         SUNNY     50  34  54 S5        30.44F
CAPE HATTERAS  SUNNY     52  42  69 N5        30.44F
TARBORO*       CLEAR     55  15  20 SW3       30.44F
GOLDSBORO      SUNNY     57  18  22 CALM      30.41F
WASHINGTON     SUNNY     55  14  19 SE5       30.43F
GREENVILLE     SUNNY     55  12  18 CALM      30.43F
NEW BERN       SUNNY     57  28  33 CALM      30.44F
WILMINGTON     SUNNY     58  43  57 SE6       30.42F
$$

VAZ048-222100-
ELSEWHERE

CITY           SKY/WX    TMP DP  RH WIND       PRES   REMARKS
HARRISBURG PA  CLOUDY    41  16  36 S8        30.28F
BALTIMORE      PTSUNNY   47  14  26 S7G17     30.32F
ANNAPOLIS      PTSUNNY   49  14  24 S8        30.35F
ANDREWS AFB    SUNNY     48  15  26 S12       30.34F
PHILADELPHIA   PTSUNNY   46  17  31 SW17      30.34F
WILDWOOD NJ*   SUNNY     46  21  36 SW12      30.35F
HENDERSON NC   SUNNY     51  10  18 S8        30.40F
GREENSBORO     CLOUDY    52  14  22 S7        30.38F
ROCKY MOUNT    SUNNY     54   9  16 VRB5      30.43F
$$

VAZ100-222100-
MARINE

STATION/POSITION TIME  TEMP    WIND        PRES    WAVE   SWELL
                       AIR SEA DIR/SP/G            HT/PER HT/PER
                 (UTC) (F)     (DEG/KT/KT) (MB)    (FT/S) (FT/S)
CAPE MAY NJ      2000   44 45  230/ 10/ 13 1027.9F
LEWES DE         2000   48 45  240/  8/ 15 1028.4R
15NM E FENWICK I 2000   46 54              1028.5F   3/ 4
OCEAN-CITY-INLET 2000   45 49  230/ 16/ 18 1028.6F
WACHAPREAGUE VA  2000   46 42  210/ 11/ 14 1029.7S
THOMAS POINT MD  2000   45 47  190/ 16/ 17 1028.9F
GOOSES REEF MD   2000   46     210/ 14/ 17 1028.6F
COVE POINT MD    2000   46     210/ 13/ 16 1028.5S
SOLOMONS ISLAND  2000      48                N/A
BISHOPS HEAD MD  2000   44 40  180/ 13/ 16   N/A
PINEY POINT MD   2000          230/ 11/ 12   N/A
POTOMAC MD       2000   47     230/ 10/ 14 1028.4F
CAMBRIDGE MD     2000   46 42  200/  9/ 15 1028.4F
LEWISETTA VA     2000   47 43  240/  8/ 10 1028.6F
RAPPAHANNOCK LGT 2000          200/ 16/ 18 1029.8F
STINGRAY PT      2000   47     220/ 12/ 14 1029.8F
YORK RVR RNG VA  2000   48     220/ 10/ 11 1029.1S
YORKTOWN VA      2000   49 50  210/  9/ 11 1029.3S
JAMESTOWN VA     2000   47     240/  8/ 12   N/A
DOMINION TERM VA 2000   48     220/  8/  9 1029.9F
KIPTOPEKE VA     2000      52  220/  9/ 12   N/A
CHES BAY BRIDGE  2000   49 51  210/ 10/ 12 1029.2F
CAPE HENRY VA    2000   49     210/  7/  9 1028.6F
CHESAPEAKE LGHT  1900   46     190/ 12/ 14 1031.0F
WILLOUBY STN VA  2000   49     230/ 11/ 12 1028.3F
S CRANEY ISL VA  2000          170/  6/ 10 1029.7F
CAPE HENRY BUOY  2000      54                N/A     2/ 3
1ST LANDING BUOY 2000   50     220/ 10/ 12 1029.6F
CAPE CHARLES BUO 2000      54                N/A     2/ 3   2/ 6
64NM E OF VA BCH 2000   50 61  210/  8/ 12 1030.3F   2/ 8   2/ 8
DUCK PIER NC     2000   50 55  200/  5/  7 1029.6F
44100 DUCK FRF   2000      57                N/A     2/ 6
44056 DUCK FRF   2000      56                N/A     2/ 6
OREGON INLET NC  2000   52 50  160/  6/  8 1030.6F
HATTERAS NC      2000   49 51   20/  6/  7 1031.0F
DIAMOND SHLS NC  2000   58      40/  2/  6 1030.9F   3/ 9   3/ 9



USA.gov is the U.S. government's official web portal to all federal, state and local government web resources and services.